User: anonymous   Login
Location: Brno
(49.2000°N, 16.6330°E)
Time: 00:27:32
(UTC+01:00)
Language:

Iridium 2 - Orbit

View from above orbital plane
View from above orbital plane
View from above satellite
View from above satellite

Ground track
Ground track

The orbit data is extracted from the following two-line orbital elements,

1 25527U 98066A   17019.50537758  .00001245  00000-0  62708-4 0  9997
2 25527  85.5325 119.9990 0007040 278.2080  81.8361 15.16097757995342
Epoch (UTC): 19 January 2017 12:07:44
Eccentricity: 0.0007040
inclination: 85.5325°
perigee height: 513 km
apogee height: 522 km
right ascension of ascending node: 119.9990°
argument of perigee: 278.2080°
revolutions per day: 15.16097757
mean anomaly at epoch: 81.8361°
orbit number at epoch: 99534

The dashed part of the orbit path shows where the satellite is in the earth's shadow,  

DLR